GW6470 Weather Reports


time (UTC)temp
C
wind
direction
speed
KPH
gust
KPH
rain 1hr
cm
rain 24hr
cm
rain mn
cm
humidity
%
barometer
mb
20260507065223 12 34 0.0 0.0 0.00 0.00 0.00 82 1022.0
20260507064721 12 349 0.0 0.0 0.00 0.00 0.00 81 1022.0
20260507064220 12 21 0.0 0.0 0.00 0.00 0.00 81 1022.2
20260507063716 12 334 0.0 0.0 0.00 0.00 0.00 81 1022.2
20260507063213 12 319 0.0 0.0 0.00 0.00 0.00 82 1022.1
20260507062710 12 334 0.0 0.0 0.00 0.00 0.00 82 1022.1
20260507062208 12 327 0.0 0.0 0.00 0.00 0.00 82 1022.0
20260507061705 12 329 3.2 4.8 0.00 0.00 0.00 82 1022.2
20260507061203 12 15 0.0 0.0 0.00 0.00 0.00 83 1022.1
20260507060701 12 2 0.0 0.0 0.00 0.00 0.00 83 1022.1
20260507060157 12 356 0.0 0.0 0.00 0.00 0.00 82 1022.2
20260507055653 12 331 0.0 0.0 0.00 0.00 0.00 82 1022.1
20260507055149 12 19 0.0 0.0 0.00 0.00 0.00 83 1021.9
20260507054645 12 37 0.0 0.0 0.00 0.00 0.00 82 1022.1
20260507054142 12 300 0.0 0.0 0.00 0.00 0.00 81 1022.0
20260507053640 12 272 0.0 0.0 0.00 0.00 0.00 81 1022.0
20260507053138 12 4 0.0 0.0 0.00 0.00 0.00 80 1022.0
20260507052636 12 317 0.0 0.0 0.00 0.00 0.00 81 1021.9
20260507052132 12 320 0.0 0.0 0.00 0.00 0.00 82 1021.9
20260507051630 13 331 1.6 3.2 0.00 0.00 0.00 80 1022.0
20260507051126 13 5 0.0 0.0 0.00 0.00 0.00 80 1022.1
20260507050623 13 18 0.0 0.0 0.00 0.00 0.00 80 1022.0
20260507050120 13 329 0.0 0.0 0.00 0.00 0.00 80 1021.9
20260507045617 13 3 0.0 0.0 0.00 0.00 0.00 80 1022.0
20260507045114 13 337 0.0 0.0 0.00 0.00 0.00 79 1021.7
20260507044610 13 329 0.0 0.0 0.00 0.00 0.00 80 1021.7
20260507044108 13 12 0.0 0.0 0.00 0.00 0.00 78 1021.6
20260507043603 13 334 0.0 0.0 0.00 0.00 0.00 78 1022.0
20260507043101 13 327 0.0 0.0 0.00 0.00 0.00 78 1021.8
20260507042556 13 346 0.0 0.0 0.00 0.00 0.00 79 1021.8
20260507042052 14 24 0.0 0.0 0.00 0.00 0.00 78 1021.5
20260507041549 14 332 0.0 0.0 0.00 0.00 0.00 78 1021.8
20260507041046 14 330 0.0 0.0 0.00 0.00 0.00 78 1021.6
20260507040543 14 357 0.0 1.6 0.00 0.00 0.00 77 1021.4
20260507040039 14 328 0.0 0.0 0.00 0.00 0.00 78 1021.4
20260507035535 15 339 0.0 0.0 0.00 0.00 0.00 78 1021.3
20260507035031 15 305 0.0 0.0 0.00 0.00 0.00 79 1021.2
20260507034528 15 334 0.0 0.0 0.00 0.00 0.00 79 1021.4
20260507034026 15 332 0.0 0.0 0.00 0.00 0.00 79 1021.1
20260507033524 15 338 0.0 0.0 0.00 0.00 0.00 79 1021.3
20260507033021 15 12 0.0 0.0 0.00 0.00 0.00 81 1021.1
20260507032518 15 12 0.0 0.0 0.00 0.00 0.00 79 1021.1
20260507032014 15 8 0.0 0.0 0.00 0.00 0.00 79 1020.8
20260507031510 15 18 0.0 0.0 0.00 0.00 0.00 78 1020.7
20260507031008 15 357 0.0 0.0 0.00 0.00 0.00 77 1020.6
20260507030504 15 6 0.0 0.0 0.00 0.00 0.00 77 1020.8
20260507030002 15 12 0.0 0.0 0.00 0.00 0.00 78 1020.6
20260507025459 16 13 0.0 0.0 0.00 0.00 0.00 78 1020.6
20260507024956 16 7 0.0 0.0 0.00 0.00 0.00 77 1020.6
20260507024454 16 4 0.0 0.0 0.00 0.00 0.00 77 1020.4
20260507023949 16 350 0.0 0.0 0.00 0.00 0.00 78 1020.3
20260507023446 16 357 0.0 0.0 0.00 0.00 0.00 78 1020.6
20260507022944 16 11 0.0 0.0 0.00 0.00 0.00 78 1020.3
20260507022441 16 347 0.0 0.0 0.00 0.00 0.00 78 1020.2
20260507021936 16 2 0.0 0.0 0.00 0.00 0.00 77 1020.4
20260507021431 16 7 0.0 0.0 0.00 0.00 0.00 78 1020.4
20260507020930 16 1 0.0 0.0 0.00 0.00 0.00 77 1020.3
20260507020426 16 352 0.0 0.0 0.00 0.00 0.00 77 1020.3
20260507015923 16 356 0.0 0.0 0.00 0.00 0.00 76 1020.2
20260507015421 17 12 0.0 0.0 0.00 0.00 0.00 74 1020.3
20260507014918 17 1 0.0 0.0 0.00 0.00 0.00 73 1020.3
20260507014414 17 72 3.2 9.7 0.00 0.00 0.00 72 1020.2
20260507013910 17 357 0.0 0.0 0.00 0.00 0.00 71 1020.3
20260507013408 18 25 0.0 0.0 0.00 0.00 0.00 71 1020.4
20260507012906 18 13 0.0 0.0 0.00 0.00 0.00 71 1020.3
20260507012402 17 11 0.0 0.0 0.00 0.00 0.00 74 1020.4
20260507011859 17 5 0.0 0.0 0.00 0.00 0.00 75 1020.2
20260507011355 17 342 0.0 0.0 0.00 0.00 0.00 73 1020.6
20260507010855 18 346 0.0 0.0 0.00 0.00 0.00 71 1020.1
20260507010351 18 7 0.0 0.0 0.00 0.00 0.00 71 1020.3
20260507005848 18 2 0.0 0.0 0.00 0.00 0.00 71 1020.1
20260507005345 18 7 0.0 0.0 0.00 0.00 0.00 70 1020.1
20260507004842 19 9 0.0 0.0 0.00 0.00 0.00 70 1020.0
20260507004339 19 12 6.4 12.9 0.00 0.00 0.00 69 1020.2
20260507003836 19 343 0.0 0.0 0.00 0.00 0.00 71 1020.2
20260507003331 20 8 0.0 0.0 0.00 0.00 0.00 68 1020.0
20260507002826 19 70 0.0 0.0 0.00 0.00 0.00 70 1020.2
20260507002323 18 26 0.0 0.0 0.00 0.00 0.00 71 1019.8
20260507001820 18 9 0.0 0.0 0.00 0.00 0.00 72 1020.0
20260507001317 19 6 0.0 0.0 0.00 0.00 0.00 71 1019.9
20260507000814 19 356 0.0 0.0 0.00 0.00 0.00 73 1020.0
20260507000309 20 344 0.0 0.0 0.00 0.00 0.00 70 1020.0
20260506235806 20 4 0.0 0.0 0.00 0.00 0.00 70 1020.2
20260506235306 19 16 0.0 0.0 0.00 0.00 0.00 72 1019.9
20260506234759 20 14 0.0 0.0 0.00 0.00 0.00 71 1019.9
20260506234256 20 0 0.0 0.0 0.00 0.00 0.00 71 1020.0
20260506233754 21 5 0.0 0.0 0.00 0.00 0.00 69 1019.9
20260506233250 21 44 0.0 0.0 0.00 0.00 0.00 64 1019.8
20260506232747 21 142 0.0 0.0 0.00 0.00 0.00 62 1020.0
20260506232247 21 134 0.0 0.0 0.00 0.00 0.00 62 1020.0
20260506231745 21 61 0.0 0.0 0.00 0.00 0.00 62 1019.9
20260506231243 22 33 0.0 0.0 0.00 0.00 0.00 61 1019.8
20260506230740 21 14 0.0 0.0 0.00 0.00 0.00 62 1019.8
20260506230237 22 38 0.0 0.0 0.00 0.00 0.00 60 1020.1
20260506225733 21 2 0.0 0.0 0.00 0.00 0.00 64 1020.4
20260506225230 21 101 0.0 0.0 0.00 0.00 0.00 63 1020.2
20260506224726 20 111 0.0 0.0 0.00 0.00 0.00 65 1020.4
20260506224224 20 68 0.0 0.0 0.00 0.00 0.00 64 1020.2
20260506223720 20 19 0.0 0.0 0.00 0.00 0.00 64 1020.5
20260506223216 20 47 0.0 0.0 0.00 0.00 0.00 64 1020.3
20260506222713 20 3 0.0 0.0 0.00 0.00 0.00 67 1020.3
20260506222208 20 15 0.0 0.0 0.00 0.00 0.00 64 1020.2
20260506221707 21 21 0.0 0.0 0.00 0.00 0.00 62 1020.2
20260506221205 21 30 0.0 0.0 0.00 0.00 0.00 63 1020.5
20260506220701 21 38 0.0 0.0 0.00 0.00 0.00 65 1020.4
20260506220156 21 352 0.0 0.0 0.00 0.00 0.00 64 1020.5
20260506215653 20 14 0.0 0.0 0.00 0.00 0.00 64 1020.6
20260506215148 20 108 0.0 0.0 0.00 0.00 0.00 68 1020.5
20260506214646 20 83 0.0 0.0 0.00 0.00 0.00 67 1020.6
20260506214143 20 125 0.0 0.0 0.00 0.00 0.00 66 1020.6
20260506213641 20 304 0.0 0.0 0.00 0.00 0.00 65 1020.3
20260506213138 20 104 0.0 0.0 0.00 0.00 0.00 67 1020.4
20260506212636 20 21 0.0 0.0 0.00 0.00 0.00 68 1020.3
20260506212136 21 99 0.0 0.0 0.00 0.00 0.00 65 1020.6
20260506211632 20 64 0.0 0.0 0.00 0.00 0.00 67 1020.5
20260506211129 19 83 0.0 0.0 0.00 0.00 0.00 70 1020.7
20260506210626 20 27 0.0 0.0 0.00 0.00 0.00 68 1020.8
20260506210122 20 125 0.0 0.0 0.00 0.00 0.00 68 1020.7
20260506205619 19 109 0.0 0.0 0.00 0.00 0.00 72 1020.8
20260506205114 18 35 0.0 0.0 0.00 0.00 0.00 69 1020.9
20260506204612 20 66 0.0 0.0 0.00 0.00 0.00 69 1020.8
20260506204109 19 139 0.0 0.0 0.00 0.00 0.00 68 1020.7
20260506203607 19 55 0.0 0.0 0.00 0.00 0.00 70 1020.8
20260506203103 18 122 0.0 0.0 0.00 0.00 0.00 73 1020.7
20260506202601 19 19 0.0 0.0 0.00 0.00 0.00 70 1020.7
20260506202057 19 331 0.0 0.0 0.00 0.00 0.00 69 1020.7
20260506201555 18 108 0.0 0.0 0.00 0.00 0.00 70 1020.6
20260506201051 19 255 0.0 0.0 0.00 0.00 0.00 69 1020.8
20260506200547 19 43 0.0 0.0 0.00 0.00 0.00 69 1020.9
20260506200044 19 177 0.0 0.0 0.00 0.00 0.00 68 1021.0
20260506195541 18 57 0.0 0.0 0.00 0.00 0.00 70 1021.0
20260506195037 18 2 0.0 0.0 0.00 0.00 0.00 72 1021.2
20260506194535 19 100 0.0 0.0 0.00 0.00 0.00 74 1021.0
20260506194031 18 3 0.0 0.0 0.00 0.00 0.00 71 1021.2
20260506193529 18 221 0.0 0.0 0.00 0.00 0.00 71 1021.2
20260506193026 17 185 0.0 0.0 0.00 0.00 0.00 73 1021.2
20260506192523 18 308 0.0 0.0 0.00 0.00 0.00 73 1021.3
20260506192018 17 232 0.0 0.0 0.00 0.00 0.00 72 1021.3
20260506191516 17 129 0.0 0.0 0.00 0.00 0.00 73 1021.1
20260506191012 17 145 0.0 0.0 0.00 0.00 0.00 73 1021.2
20260506190509 18 139 0.0 0.0 0.00 0.00 0.00 72 1021.2
20260506190006 17 200 0.0 0.0 0.00 0.00 0.00 74 1021.3
20260506185503 17 146 0.0 0.0 0.00 0.00 0.00 74 1021.1
20260506184959 18 162 0.0 0.0 0.00 0.00 0.00 72 1021.2
20260506184457 18 66 0.0 0.0 0.00 0.00 0.00 71 1021.1
20260506183954 17 259 0.0 0.0 0.00 0.00 0.00 75 1021.3
20260506183449 17 81 0.0 0.0 0.00 0.00 0.00 79 1021.2
20260506182946 16 308 0.0 0.0 0.00 0.00 0.00 76 1021.3
20260506182444 17 263 0.0 0.0 0.00 0.00 0.00 76 1021.0
20260506181941 16 228 0.0 0.0 0.00 0.00 0.00 76 1020.9
20260506181439 16 48 0.0 0.0 0.00 0.00 0.00 81 1021.1
20260506180935 17 89 1.6 3.2 0.00 0.00 0.00 76 1021.2
20260506180432 16 3 0.0 0.0 0.00 0.00 0.00 79 1021.3
20260506175929 16 249 0.0 0.0 0.00 0.00 0.00 78 1021.2
20260506175425 16 232 0.0 0.0 0.00 0.00 0.00 78 1021.3
20260506174922 16 84 0.0 0.0 0.00 0.00 0.00 78 1021.2
20260506174420 16 23 0.0 0.0 0.00 0.00 0.00 77 1021.3
20260506173917 16 265 0.0 0.0 0.00 0.00 0.00 77 1021.2
20260506173414 16 308 0.0 0.0 0.00 0.00 0.00 79 1021.3
20260506172911 16 52 0.0 0.0 0.00 0.00 0.00 79 1021.3
20260506172407 16 27 0.0 0.0 0.00 0.00 0.00 78 1021.1
20260506171905 16 76 0.0 0.0 0.00 0.00 0.00 79 1021.0
20260506171402 16 3 4.8 4.8 0.00 0.00 0.00 78 1021.1
20260506170900 16 21 0.0 1.6 0.00 0.00 0.00 78 1020.9
20260506170356 15 24 0.0 0.0 0.00 0.00 0.00 81 1021.2
20260506165855 15 201 0.0 0.0 0.00 0.00 0.00 82 1021.0
20260506165352 15 326 0.0 0.0 0.00 0.00 0.00 81 1021.1
20260506164848 15 285 0.0 0.0 0.00 0.00 0.00 81 1021.4
20260506164345 15 49 0.0 0.0 0.00 0.00 0.00 81 1021.3
20260506163843 15 342 0.0 0.0 0.00 0.00 0.00 82 1021.4
20260506163337 15 286 0.0 0.0 0.00 0.00 0.00 83 1021.3
20260506162833 15 29 0.0 0.0 0.00 0.00 0.00 83 1021.1
20260506162331 14 291 0.0 0.0 0.00 0.00 0.00 84 1021.4
20260506161828 15 280 0.0 0.0 0.00 0.00 0.00 83 1021.4
20260506161325 14 243 0.0 0.0 0.00 0.00 0.00 83 1021.0
20260506160824 15 259 0.0 0.0 0.00 0.00 0.00 82 1021.2
20260506160320 15 297 0.0 0.0 0.00 0.00 0.00 81 1021.0
20260506155819 15 3 0.0 0.0 0.00 0.00 0.00 82 1020.9
20260506155315 14 105 0.0 0.0 0.00 0.00 0.00 84 1020.7
20260506153427 14 286 0.0 0.0 0.00 0.00 0.00 84 1020.7
20260506152924 14 251 0.0 0.0 0.00 0.00 0.00 84 1020.6
20260506152421 13 23 0.0 0.0 0.00 0.00 0.00 84 1020.6
20260506151920 13 37 0.0 0.0 0.00 0.00 0.00 86 1020.7
20260506151416 13 62 0.0 0.0 0.00 0.00 0.00 86 1020.9
20260506150914 13 312 0.0 0.0 0.00 0.00 0.00 86 1021.1
20260506150410 13 326 0.0 0.0 0.00 0.00 0.00 88 1021.1
20260506145907 13 346 0.0 0.0 0.00 0.00 0.00 87 1021.3
20260506145403 13 292 0.0 0.0 0.00 0.00 0.00 88 1021.1
20260506144901 13 288 0.0 0.0 0.00 0.00 0.00 88 1021.3
20260506144357 13 7 0.0 0.0 0.00 0.00 0.00 89 1021.0
20260506143855 13 278 0.0 0.0 0.00 0.00 0.00 89 1021.1
20260506143352 13 34 0.0 0.0 0.00 0.00 0.00 89 1021.1
20260506142851 13 5 0.0 0.0 0.00 0.00 0.00 90 1020.9
20260506142348 13 6 0.0 0.0 0.00 0.00 0.00 90 1020.7
20260506141846 12 316 0.0 0.0 0.00 0.00 0.00 90 1020.7
20260506141344 12 349 0.0 0.0 0.00 0.00 0.00 90 1020.7
20260506140842 12 288 0.0 0.0 0.00 0.00 0.00 90 1020.5
20260506140338 12 312 0.0 0.0 0.00 0.00 0.00 90 1020.3
20260506135835 12 317 0.0 0.0 0.00 0.00 0.00 89 1020.0
20260506135332 12 326 0.0 0.0 0.00 0.00 0.00 90 1020.1
20260506134828 12 342 0.0 0.0 0.00 0.00 0.00 91 1020.3
20260506134325 12 334 0.0 0.0 0.00 0.00 0.00 91 1020.1
20260506133822 12 304 0.0 0.0 0.00 0.00 0.00 91 1020.2
20260506133319 12 299 0.0 0.0 0.00 0.00 0.00 91 1020.1
20260506132816 12 325 0.0 0.0 0.00 0.00 0.00 91 1020.0
20260506132313 12 308 0.0 0.0 0.00 0.00 0.00 91 1020.0
20260506131811 12 296 0.0 0.0 0.00 0.00 0.00 92 1020.3
20260506131306 12 297 0.0 0.0 0.00 0.00 0.00 92 1020.2
20260506130804 12 86 0.0 0.0 0.00 0.00 0.00 91 1019.9
20260506130300 12 86 0.0 0.0 0.00 0.00 0.00 91 1019.8
20260506125758 12 93 0.0 0.0 0.00 0.00 0.00 91 1019.7
20260506125256 12 93 0.0 0.0 0.00 0.00 0.00 91 1019.6
20260506124754 12 94 0.0 0.0 0.00 0.00 0.00 91 1019.7
20260506124251 12 94 0.0 0.0 0.00 0.00 0.00 91 1019.7
20260506123749 12 93 0.0 0.0 0.00 0.00 0.00 90 1019.7
20260506123247 13 93 0.0 0.0 0.00 0.00 0.00 89 1019.7
20260506122744 13 93 0.0 0.0 0.00 0.00 0.00 89 1019.6
20260506122241 13 95 0.0 0.0 0.00 0.00 0.00 88 1019.4
20260506121739 13 82 0.0 0.0 0.00 0.00 0.00 89 1019.7
20260506121235 13 78 0.0 0.0 0.00 0.00 0.00 89 1019.6
20260506120733 13 1 0.0 0.0 0.00 0.00 0.00 89 1019.6
20260506120231 13 326 0.0 0.0 0.00 0.00 0.00 89 1019.4
20260506115728 13 298 0.0 0.0 0.00 0.00 0.00 89 1019.8
20260506115226 13 291 0.0 0.0 0.00 0.00 0.00 89 1019.5
20260506114724 13 312 0.0 0.0 0.00 0.00 0.00 89 1019.6
20260506114221 13 27 0.0 0.0 0.00 0.00 0.00 88 1019.4
20260506113719 13 333 0.0 0.0 0.00 0.00 0.00 88 1019.6
20260506113216 13 356 0.0 0.0 0.00 0.00 0.00 88 1019.3
20260506112712 13 11 0.0 0.0 0.00 0.00 0.00 88 1019.4
20260506112211 13 4 0.0 0.0 0.00 0.00 0.00 88 1019.2
20260506111708 13 7 0.0 0.0 0.00 0.00 0.00 88 1019.3
20260506111206 13 8 0.0 0.0 0.00 0.00 0.00 88 1019.5
20260506110702 13 15 0.0 0.0 0.00 0.00 0.00 88 1019.3
20260506110200 13 24 0.0 0.0 0.00 0.00 0.00 89 1019.1
20260506105657 13 326 0.0 0.0 0.00 0.00 0.00 88 1019.0
20260506105153 13 6 0.0 0.0 0.00 0.00 0.00 88 1018.9
20260506104652 13 309 0.0 0.0 0.00 0.00 0.00 88 1018.8
20260506104149 13 17 0.0 0.0 0.00 0.00 0.00 88 1018.8
20260506103646 13 349 0.0 0.0 0.00 0.00 0.00 89 1018.6
20260506103143 13 303 0.0 0.0 0.00 0.00 0.00 89 1018.6
20260506102641 13 297 0.0 0.0 0.00 0.00 0.00 89 1018.5
20260506102138 13 298 0.0 0.0 0.00 0.00 0.00 90 1018.5
20260506101635 13 295 0.0 0.0 0.00 0.00 0.00 90 1018.5
20260506101131 13 306 0.0 0.0 0.00 0.00 0.00 90 1018.4
20260506100630 13 310 0.0 0.0 0.00 0.00 0.00 89 1018.3
20260506100128 13 312 0.0 0.0 0.00 0.00 0.00 89 1018.3
20260506095626 13 303 0.0 0.0 0.00 0.00 0.00 89 1018.4
20260506095122 13 295 0.0 0.0 0.00 0.00 0.00 89 1018.4
20260506094620 13 295 0.0 0.0 0.00 0.00 0.00 89 1018.2
20260506094117 13 299 0.0 0.0 0.00 0.00 0.00 89 1018.3
20260506093616 13 297 0.0 0.0 0.00 0.00 0.00 89 1018.4
20260506093113 13 308 0.0 0.0 0.00 0.00 0.00 90 1018.1
20260506092610 13 321 0.0 0.0 0.00 0.00 0.00 90 1018.0
20260506092107 13 300 0.0 0.0 0.00 0.00 0.00 90 1018.1
20260506091606 13 286 0.0 0.0 0.00 0.00 0.00 90 1018.3
20260506091103 13 301 0.0 0.0 0.00 0.00 0.00 90 1018.2
20260506090600 13 303 0.0 0.0 0.00 0.00 0.00 89 1018.0
20260506090056 13 312 0.0 0.0 0.00 0.00 0.00 89 1018.0
20260506085554 13 331 0.0 0.0 0.00 0.00 0.00 89 1017.9
20260506085050 13 317 0.0 0.0 0.00 0.00 0.00 90 1018.0
20260506084547 13 333 0.0 0.0 0.00 0.00 0.00 90 1018.1
20260506084043 13 332 0.0 0.0 0.00 0.00 0.00 89 1018.1
20260506083540 14 331 0.0 0.0 0.00 0.00 0.00 89 1018.1
20260506083038 14 310 0.0 0.0 0.00 0.00 0.00 88 1017.7
20260506082534 14 312 0.0 0.0 0.00 0.00 0.00 87 1017.9
20260506082030 14 12 0.0 0.0 0.00 0.00 0.00 87 1018.0
20260506081528 14 351 0.0 0.0 0.00 0.00 0.00 87 1018.0
20260506081025 14 25 0.0 0.0 0.00 0.00 0.00 87 1018.0
20260506080523 14 22 0.0 0.0 0.00 0.00 0.00 88 1017.9
20260506073506 14 25 0.0 0.0 0.00 0.00 0.00 89 1017.5
20260506073003 14 27 0.0 0.0 0.00 0.00 0.00 89 1017.6
20260506072500 14 28 0.0 0.0 0.00 0.00 0.00 89 1017.6
20260506071958 14 28 0.0 0.0 0.00 0.00 0.00 89 1017.6
20260506071456 14 28 0.0 0.0 0.00 0.00 0.00 89 1017.6
20260506070953 14 28 0.0 0.0 0.00 0.00 0.00 89 1017.3
20260506070450 14 28 0.0 0.0 0.00 0.00 0.00 89 1017.5